Location: Chefe Valiua
(16.5342°S, 37.2214°E)
Time: 13:04:46
(UTC+00:00)

Envisat - Pass Details

Date: 20 June 2021
Orbit: 764 x 766 km, 98.1° (Epoch: 25 July)

Event Time Altitude Azimuth Distance (km) Brightness Sun altitude
Rises 02:41:39 0° 1° (N) 3,209 6.5 -17.9°
Reaches altitude 10° 02:44:00 10° 355° (N) 2,290 5.6 -17.4°
Maximum altitude 02:48:52 49° 281° (W) 977 3.2 -16.3°
Enters shadow 02:52:55 15° 209° (SSW) 1,981 4.7 -15.4°
